Starlink 35540

operational
NORAD ID: 66151 Int'l Des: 2025-240 Owner: SPXS Country: US Constellation: starlink
LEOCIRCULAR

Starlink 35540について

説明を読み込み中...

リアルタイム位置

3D地球を読み込み中...

次回通過

高度履歴

Altitude vs Time

uPlot chart will show altitude changes over time

軌道要素

1 66151U 25240F 25351.26285191 .00022703 00000-0 77603-3 0 9992
2 66151 53.1619 85.3101 0001148 87.0977 273.0155 15.30212349 9378
Epoch: Dec 17, 2025 • Age: 11 hours

現在のステータス

高度 475.6 km
速度 7.63 km/s
衛星直下点 24.83°N, 115.46°E
打ち上げ日 Oct 25, 2025
運用期間 0.1 years
タイプ internet

技術仕様

分類 Payload
質量 575.00 kg
乾燥質量 530.00 kg
総質量 575.00 kg
長さ 0.30 m
直径 4.10 m
スパン 29.00 m
形状 Box + pan
製造者 SPXS
バスタイプ Starlink V2MO
フェーズステータス In Orbit
所有者/国 SPXS/US

大規模コンステレーション

Loading constellations...